Location: Colle Pacifico
(43.5333°N, 13.3167°E)
Time: 02:41:43
(UTC+00:00)

AQUA - Pass Details

Date: 07 June 2020
Orbit: 702 x 703 km, 98.2° (Epoch: 05 July)

Event Time Altitude Azimuth Distance (km) Brightness Sun altitude
Rises 01:08:53 0° 12° (NNE) 3,100 8.6 -17.9°
Reaches altitude 10° 01:11:08 10° 12° (NNE) 2,178 7.5 -17.7°
Maximum altitude 01:15:55 86° 284° (WNW) 710 3.8 -17.3°
Enters shadow 01:18:19 30° 197° (SSW) 1,251 4.6 -17.0°
